User: anonymous   Login
Location: Clyde
(45.1830°S, 169.3170°E)
Time: 01:56:49
(UTC+13:00)
Language:

SL-08 RB Rocket - Orbit

View from above orbital plane
View from above orbital plane
View from above satellite
View from above satellite

Ground track
Ground track

The orbit data is extracted from the following two-line orbital elements,

1 26387U 00033D   19323.74067573 +.00000072 +00000-0 +20495-4 0  9992
2 26387 097.8494 009.0561 0027249 039.3301 073.2618 14.68502878295522
Epoch (UTC): 19 November 2019 17:46:34
Eccentricity: 0.0027249
inclination: 97.8494°
perigee height: 646 km
apogee height: 685 km
right ascension of ascending node: 9.0561°
argument of perigee: 39.3301°
revolutions per day: 14.68502878
mean anomaly at epoch: 73.2618°
orbit number at epoch: 29552

The dashed part of the orbit path shows where the satellite is in the earth's shadow,  

DLR